Wind_Speed
12 12 12 12 12 12 11 12 11 11 10 10 9 9 10 10 11 11 11 11 11 11 12 12 13 13 13 13 13 13 13 12 12 11 11 13 16 17 18 20 20 19 18 17 14 13 12 11 10 10 9 9 10 11 12 12 12 11 11 11 9 9 11 12 16 18 19 20 22 21 20 19 19 21 21 22 22 15 14 17 19 19 16 18 20 22 24 24
12 13 13 13 13 13 13 13 13 13 12 11 10 10 9 9 10 11 11 12 12 11 12 12 13 13 14 13 13 13 13 13 12 11 13 14 14 15 17 18 19 19 17 16 13 12 11 9 10 12 11 10 11 12 13 13 13 12 11 10 8 8 11 12 14 15 16 17 19 20 20 19 17 19 21 21 21 17 16 20 21 18 17 20 22 22 23 23
12 12 13 13 14 14 14 14 14 14 14 13 13 11 10 9 9 10 11 12 12 12 12 12 12 13 13 13 13 13 13 14 12 13 14 13 14 15 16 17 19 18 17 15 14 14 13 10 11 13 12 12 13 12 13 13 13 13 11 8 7 9 11 13 15 14 14 14 16 19 19 18 17 17 19 19 18 18 18 21 22 19 18 22 23 22 22 22
11 11 11 12 13 13 13 14 14 15 15 15 15 14 13 11 8 8 10 12 13 13 13 12 12 13 13 13 13 13 14 14 14 16 14 14 16 16 15 17 18 18 18 18 18 18 18 16 16 16 14 13 13 13 13 13 13 12 11 9 6 8 10 12 15 15 15 14 14 17 19 18 17 16 18 18 18 19 19 18 18 16 18 21 22 21 21 21
10 10 10 11 11 11 12 12 12 13 14 15 15 15 14 13 10 8 8 10 12 13 13 13 13 13 13 13 13 13 13 13 15 16 15 16 17 15 16 16 18 18 19 20 21 22 21 20 20 18 16 15 14 13 13 13 12 11 10 9 6 7 9 11 15 16 16 15 14 17 18 18 16 15 16 17 17 18 18 18 15 13 17 19 19 20 21 20
10 10 10 11 11 11 11 11 11 11 12 13 14 14 14 14 13 10 9 10 11 12 13 14 13 13 13 13 13 13 13 12 13 17 17 17 17 16 17 17 19 20 19 21 23 23 22 22 21 19 17 16 14 13 12 10 10 9 9 9 7 7 8 10 14 16 16 16 16 18 18 18 17 16 16 17 16 16 17 17 14 13 18 18 17 18 20 20
10 10 10 11 11 11 11 10 10 10 10 11 12 13 13 13 13 11 10 10 11 11 12 13 14 14 14 14 13 13 13 12 13 17 18 18 18 17 18 18 19 19 19 21 23 22 23 23 21 20 18 16 14 12 10 9 8 8 7 7 7 8 8 9 12 14 16 16 16 18 19 18 18 17 18 18 17 17 18 16 14 16 20 19 16 17 19 20
11 11 11 11 11 12 12 12 11 11 10 10 10 11 12 11 11 11 10 11 11 11 11 13 14 15 15 15 14 13 14 14 14 17 19 19 19 18 18 18 18 18 19 20 21 21 22 22 22 20 17 16 14 11 10 8 8 7 6 6 7 7 8 9 11 13 16 17 15 18 19 18 17 17 18 18 17 18 17 15 16 18 21 19 16 17 19 20
12 12 11 11 12 12 13 13 12 12 11 11 10 10 11 11 11 11 10 10 12 12 11 12 13 15 15 15 14 13 14 16 16 18 20 20 20 19 19 18 17 17 18 19 21 21 20 21 22 19 16 15 13 10 9 9 9 6 6 6 6 8 8 10 12 13 14 16 15 17 18 17 17 17 17 17 18 18 16 15 17 19 20 19 17 18 19 19
12 12 12 12 12 13 13 14 14 13 12 12 11 10 10 10 10 10 10 10 11 12 12 12 13 14 15 15 15 15 15 17 17 19 20 20 21 21 21 19 17 16 17 18 19 18 18 19 20 20 17 15 13 11 9 8 6 3 5 7 7 8 8 8 12 13 14 16 15 15 16 18 18 16 18 19 18 17 15 17 19 19 20 19 18 18 19 19
11 12 13 13 14 15 15 16 16 15 14 13 12 11 10 10 10 9 9 10 11 11 12 13 13 14 15 16 16 15 16 17 18 19 20 21 22 22 22 21 18 17 16 16 16 16 18 20 22 21 17 15 13 11 9 6 5 1 3 8 8 7 8 8 11 13 15 17 15 15 16 18 18 17 17 18 18 17 16 19 20 20 20 19 19 20 20 20
12 13 15 16 16 17 17 17 17 17 16 15 13 12 11 11 10 9 9 9 10 11 12 14 14 14 15 16 16 16 17 18 18 19 20 21 23 24 25 23 21 18 16 15 15 17 21 23 23 20 17 16 13 9 7 6 6 2 4 9 9 7 9 10 11 12 14 16 16 15 15 17 19 17 18 18 17 18 18 20 21 21 21 20 20 20 21 21
13 15 16 17 17 17 16 16 16 17 16 16 15 13 12 11 11 9 8 9 9 10 12 14 15 15 15 16 17 17 18 18 18 19 19 21 23 25 26 25 23 22 19 18 17 19 22 22 22 21 19 17 12 8 8 8 7 5 5 8 8 9 11 12 11 11 13 15 17 17 17 17 19 19 19 18 19 20 21 22 22 22 21 21 21 20 20 20
14 15 15 15 15 15 14 14 14 14 14 14 14 13 12 11 11 10 9 8 8 9 11 13 14 14 15 16 18 18 17 18 18 18 19 20 22 24 25 26 25 23 22 22 23 23 21 21 23 23 19 16 12 9 10 11 6 6 8 8 7 11 14 13 12 12 14 17 20 20 18 16 17 20 20 20 21 22 22 22 22 22 22 22 21 20 20 19
13 13 13 13 14 14 14 13 13 12 12 13 12 12 12 11 11 11 10 8 7 8 10 12 14 14 15 17 18 18 16 16 17 19 20 21 21 23 25 25 25 24 23 25 28 26 22 22 24 22 17 15 14 11 12 11 6 8 12 11 9 9 12 13 12 12 13 17 22 19 17 16 17 20 20 21 22 21 22 23 22 22 22 21 21 20 20 19
11 11 12 13 14 14 14 14 13 13 13 13 12 11 10 10 11 11 10 8 6 7 9 12 13 14 15 17 18 17 15 15 17 17 19 22 22 22 24 26 25 25 24 26 30 28 25 24 25 23 18 16 16 13 12 9 7 10 12 12 13 9 10 14 13 12 11 14 21 20 16 17 18 20 20 21 24 22 21 23 23 22 21 21 21 20 20 19
10 12 13 14 14 13 14 14 14 15 14 14 13 11 9 9 10 10 8 7 6 6 8 11 13 14 15 16 17 17 16 16 16 15 16 20 24 23 23 26 26 25 25 28 30 28 26 25 24 23 20 18 17 15 14 12 12 16 14 13 14 10 9 13 13 14 14 15 20 20 18 18 18 21 20 22 25 23 22 23 23 22 21 21 21 20 20 20
11 13 13 13 12 13 13 14 15 14 14 13 12 9 7 8 9 7 6 6 5 5 7 11 13 13 13 15 16 18 18 17 15 16 17 19 23 24 24 26 26 26 28 30 30 27 26 25 23 22 21 20 19 19 17 15 15 16 16 14 14 12 11 11 10 12 15 16 18 19 17 17 18 20 21 23 25 25 23 23 23 23 21 21 21 22 21 20
12 13 12 11 11 12 12 12 12 11 9 8 7 5 5 6 6 6 5 4 4 4 6 9 13 14 12 14 18 19 18 17 16 16 17 18 23 25 26 27 26 28 31 32 29 27 26 25 23 23 25 23 21 20 16 12 10 11 13 15 14 13 12 12 10 9 14 16 17 19 18 16 18 20 21 24 26 25 23 23 23 24 23 22 22 22 22 21
12 13 11 10 11 11 10 10 8 6 4 4 4 3 3 5 5 5 4 3 3 5 6 8 13 15 14 16 19 20 17 15 16 16 17 19 22 25 27 29 27 29 33 32 28 26 25 25 26 26 26 23 21 19 12 8 10 10 12 15 14 13 13 13 12 10 14 16 14 17 18 16 17 20 23 25 26 26 25 25 25 25 24 24 23 22 21 20
12 12 10 10 10 9 9 8 6 3 2 3 3 2 3 4 4 4 3 2 3 5 7 9 13 14 15 17 18 20 17 14 16 17 18 20 22 24 27 29 29 31 33 29 26 26 26 26 28 28 24 22 19 17 14 11 12 12 11 13 12 15 16 13 12 11 14 15 12 14 16 15 16 20 24 26 27 27 26 25 25 25 24 23 23 21 20 20
12 11 10 10 9 8 8 7 6 4 3 3 4 4 4 4 2 1 1 1 1 4 8 11 13 14 15 16 16 19 17 15 18 19 19 21 23 24 26 29 31 33 32 29 25 25 27 29 30 27 24 24 19 16 17 15 12 11 10 9 9 14 13 10 10 11 14 15 13 14 14 14 16 20 24 27 28 28 26 25 24 23 23 22 21 20 19 21
11 10 10 9 8 7 7 7 6 5 5 5 6 5 4 3 1 1 2 3 3 6 12 14 14 13 13 14 15 16 16 16 19 20 20 20 22 24 26 29 30 31 29 28 26 24 26 29 29 27 25 25 21 17 18 19 17 13 10 9 7 11 12 10 11 13 15 15 13 13 13 13 15 19 26 29 29 29 26 25 24 23 23 21 20 19 17 20
10 9 10 8 7 6 6 7 6 6 7 6 5 4 2 1 1 3 5 7 7 11 16 15 13 12 11 11 11 11 14 16 18 21 21 21 23 23 24 26 26 27 25 24 26 27 27 25 24 26 26 25 23 19 19 20 20 16 13 10 6 9 11 10 12 14 17 16 12 13 13 15 17 20 27 30 30 30 28 26 25 24 24 21 19 19 17 19
9 9 9 7 6 6 6 6 5 6 6 5 4 2 1 3 5 6 6 7 8 13 16 14 13 11 10 11 11 10 11 13 16 19 19 20 21 20 21 24 22 21 21 21 23 28 29 22 17 19 23 25 24 21 20 21 22 19 16 13 7 7 7 8 11 16 20 17 14 15 12 13 21 24 26 30 32 32 30 27 26 25 25 23 21 20 18 19
8 8 8 7 6 6 5 5 4 5 4 4 5 4 4 6 7 7 7 7 10 15 14 12 11 9 9 11 13 12 10 11 15 15 15 16 16 16 17 21 21 17 18 21 21 26 29 25 18 15 18 23 23 22 21 22 23 21 17 14 10 9 7 8 13 18 21 17 15 19 12 9 21 26 27 31 33 32 31 30 27 26 26 25 23 20 19 19
8 7 7 7 7 6 6 5 5 5 5 6 7 7 7 8 8 8 8 7 9 13 10 9 9 8 10 12 14 11 6 11 15 11 12 12 11 12 13 15 16 13 14 18 21 24 25 25 23 17 16 19 22 22 21 22 24 22 18 13 11 10 7 9 13 18 20 15 15 22 15 7 15 24 27 32 33 33 34 33 30 28 27 25 23 20 20 19
7 6 6 8 8 9 10 11 12 12 11 10 9 9 8 7 7 6 5 3 6 9 6 9 10 8 10 12 13 8 3 10 14 10 12 12 10 11 11 11 10 10 12 15 19 20 19 20 21 19 17 19 22 21 18 21 24 23 20 13 10 8 5 9 14 20 21 15 17 25 20 6 8 18 24 30 35 36 37 37 34 31 28 26 24 22 20 19
5 5 7 10 11 13 15 15 15 14 12 11 10 10 9 6 6 5 4 3 6 6 5 9 7 5 8 10 11 9 6 10 9 9 12 12 12 11 11 10 8 9 10 12 15 14 12 12 15 17 17 18 21 19 17 21 24 24 21 15 11 8 6 10 18 23 20 15 16 26 25 10 4 13 24 29 34 37 37 36 35 33 30 28 25 22 21 20
4 5 9 11 13 15 16 15 14 12 11 10 10 13 13 10 7 5 4 4 3 3 2 7 7 5 8 11 12 11 10 9 4 6 11 12 12 11 10 10 9 9 9 10 12 11 11 12 13 16 17 17 17 17 17 21 22 21 17 15 12 9 11 16 21 21 14 10 17 24 27 17 4 10 26 29 26 29 34 35 35 36 33 30 26 24 23 21
3 6 10 12 14 15 14 13 12 11 10 8 8 11 14 15 13 7 3 4 4 3 2 5 6 3 6 11 14 12 10 7 3 5 10 12 13 11 10 10 9 9 10 12 13 11 12 15 16 17 17 16 15 15 17 19 20 17 12 14 10 8 12 15 16 16 9 5 14 21 26 21 10 10 20 26 21 19 28 35 36 36 35 31 28 25 24 23
2 7 11 13 14 13 13 12 11 11 10 9 9 9 11 14 15 11 6 4 3 4 3 4 4 2 6 11 13 11 9 7 6 7 10 12 12 10 9 9 8 9 10 11 12 12 13 15 17 17 17 16 14 15 17 19 20 17 14 15 12 10 10 7 5 7 6 5 6 14 22 19 15 16 16 22 24 18 20 28 33 35 33 32 29 27 26 25
4 8 12 13 13 12 12 11 11 11 10 11 12 12 14 13 11 12 11 8 5 5 4 6 5 5 8 10 10 10 7 6 7 10 12 12 12 10 8 8 9 10 9 8 9 9 9 12 16 17 16 17 17 17 19 21 22 21 21 21 15 9 5 2 1 1 4 8 4 8 16 12 12 17 16 18 23 21 17 19 27 33 33 31 31 29 29 28
6 10 12 12 12 12 12 10 11 10 9 11 11 11 16 14 9 12 14 11 8 6 4 6 6 7 9 8 8 8 6 6 8 12 14 12 12 11 10 10 11 12 12 10 9 7 5 7 15 18 16 16 19 19 18 17 19 21 22 22 19 14 7 4 6 4 3 6 6 8 11 8 9 13 16 17 19 21 20 16 19 29 34 33 32 32 31 30
8 11 12 11 11 11 11 10 10 9 10 12 9 9 15 12 9 12 13 11 9 6 4 6 7 8 7 6 6 6 5 5 8 11 12 9 6 7 7 8 10 13 14 11 7 6 5 5 10 16 16 15 16 17 17 15 15 18 20 22 22 20 13 9 12 16 13 6 6 11 9 9 13 15 17 15 15 18 21 18 17 24 32 34 33 32 32 33
10 11 11 10 10 10 10 10 10 10 11 8 5 11 17 13 10 11 10 11 9 5 5 7 7 6 5 5 5 5 4 5 7 10 10 6 4 4 4 3 5 9 12 12 9 5 5 5 7 12 16 16 13 13 16 17 14 15 21 24 22 19 18 13 10 14 15 5 4 10 10 11 14 14 18 16 13 16 20 20 19 22 28 31 31 31 31 33
12 11 10 9 9 8 9 9 9 11 10 6 6 15 17 12 10 9 8 10 10 6 7 9 8 5 4 5 6 6 6 5 6 8 9 7 4 4 5 3 1 2 7 13 12 8 8 8 6 9 13 16 16 13 15 18 16 15 21 24 21 16 17 14 8 6 6 2 3 9 12 15 13 10 15 17 14 14 18 21 21 23 27 30 31 32 31 32
13 11 10 10 9 8 8 7 8 10 8 7 12 17 15 12 10 8 7 8 10 9 9 11 9 5 5 5 4 5 6 6 6 8 10 8 3 4 5 5 5 5 3 10 11 7 7 8 6 7 9 13 17 16 15 18 19 17 18 22 19 13 13 13 8 6 5 1 2 5 9 15 18 17 17 16 15 15 18 21 23 24 28 28 30 31 31 32
13 12 12 11 9 8 8 8 9 9 7 9 13 14 13 12 9 8 8 7 8 10 11 11 10 8 6 5 5 5 6 7 9 10 10 8 5 5 6 6 6 7 3 5 9 6 5 5 3 5 8 11 15 17 16 19 20 17 17 23 23 14 12 13 9 9 9 4 0 2 4 10 21 25 22 17 16 17 19 23 24 26 27 28 28 29 30 30
13 12 11 11 9 8 8 9 9 8 8 11 12 10 11 11 8 6 7 7 8 10 11 10 10 10 10 8 8 9 7 8 12 12 10 10 7 5 6 5 4 5 5 3 4 6 6 5 4 4 6 10 12 14 16 17 19 18 18 24 25 17 13 12 8 8 10 6 3 3 2 8 19 26 24 20 17 18 22 24 25 26 26 26 27 27 28 29
12 11 10 9 9 9 9 9 8 7 9 10 9 8 9 9 6 5 5 6 8 10 10 8 8 9 9 9 10 11 11 11 13 12 10 10 7 5 4 4 4 3 4 3 0 4 4 4 5 6 2 7 10 11 14 16 17 18 18 20 22 20 18 12 4 5 9 7 7 7 3 8 18 23 24 23 19 20 25 26 26 26 24 24 24 25 27 28
11 10 9 9 9 8 7 8 8 8 8 9 8 8 7 5 5 5 4 4 6 8 8 7 7 7 6 7 9 11 12 11 10 11 10 9 7 6 4 3 5 5 5 4 3 3 3 3 5 5 1 6 8 9 13 15 15 16 16 16 18 19 20 17 8 8 11 8 8 8 3 6 16 21 23 24 21 22 26 27 26 24 22 21 21 22 23 24
9 9 9 8 8 7 5 7 8 7 7 7 6 7 5 4 5 4 3 4 5 5 6 6 6 6 5 5 5 9 11 10 9 10 9 8 6 4 3 4 6 6 6 4 3 3 3 4 5 2 3 6 8 11 13 14 13 14 14 14 15 15 17 19 16 14 15 12 10 7 2 6 15 19 21 23 22 22 26 26 24 21 21 19 19 19 20 20
9 10 9 7 6 5 5 6 7 6 6 6 4 3 4 4 3 3 3 4 5 5 6 7 7 6 6 4 3 6 8 7 9 10 9 7 5 2 3 4 6 6 5 5 4 3 2 3 4 2 2 4 6 8 9 10 11 13 14 14 15 14 14 15 15 14 15 16 14 8 3 8 15 19 21 22 22 23 25 25 23 21 21 21 20 19 19 19
10 10 7 5 5 5 5 6 6 6 7 7 5 3 2 4 3 3 4 4 4 5 6 7 7 6 5 3 2 4 5 6 8 9 8 6 5 3 2 3 5 6 5 4 4 3 3 4 4 2 3 3 3 2 3 3 8 10 12 13 13 14 13 12 13 15 13 15 17 12 7 10 16 20 21 22 22 24 25 25 24 24 23 23 22 21 20 19
10 8 5 4 4 5 6 5 5 6 7 6 5 3 1 2 3 3 3 3 3 3 3 4 5 4 3 2 1 3 5 6 7 7 6 5 5 3 1 1 3 4 2 1 2 1 4 8 10 10 9 7 4 5 6 4 3 7 9 11 11 12 12 10 11 13 13 15 18 16 11 12 16 21 24 24 24 25 25 25 25 25 25 24 22 20 18 18
9 7 7 7 6 6 6 5 4 4 4 5 5 4 3 2 2 2 1 1 2 1 1 2 3 2 2 2 2 2 3 5 5 5 6 5 3 2 1 1 2 3 3 3 3 2 4 9 12 13 13 10 7 6 3 3 1 3 7 10 11 11 11 11 9 9 10 13 17 18 15 13 14 20 26 27 27 26 25 25 25 25 25 23 20 18 17 15
9 8 9 9 7 7 7 5 4 1 1 3 4 6 5 2 1 2 1 2 2 1 1 1 2 2 2 2 1 2 3 5 5 5 6 5 4 2 1 1 2 2 2 1 2 3 3 6 9 11 11 9 7 6 3 2 1 2 5 8 11 13 12 12 10 8 8 9 12 15 17 15 13 16 23 28 29 28 26 25 24 24 23 21 19 19 18 16
10 9 10 10 7 7 7 6 4 1 1 2 4 5 5 3 2 2 3 4 4 3 2 1 2 2 2 0 1 2 4 5 5 5 5 4 4 3 2 1 2 3 2 1 1 2 4 4 5 6 7 6 4 4 4 4 3 3 5 5 8 12 14 14 13 12 10 9 9 11 15 18 15 14 20 27 28 27 26 25 23 22 20 19 19 19 18 17
10 10 11 11 8 7 6 6 4 3 3 3 3 3 3 3 4 5 5 5 5 3 2 0 1 2 1 2 3 2 3 6 6 5 4 2 2 2 1 0 1 3 3 2 2 1 2 3 3 4 4 7 7 2 1 3 4 5 3 5 5 8 11 13 15 15 15 13 12 11 13 17 18 15 19 26 28 28 27 25 23 20 18 18 18 17 16 16
10 9 10 10 9 7 7 7 5 4 3 2 3 3 4 5 6 5 4 3 3 2 2 1 1 1 2 3 3 3 2 4 6 5 4 3 2 1 0 1 1 2 2 2 3 3 2 0 2 3 3 9 14 9 5 2 2 4 2 3 3 3 6 8 11 13 16 17 17 16 15 16 18 18 20 24 28 28 27 25 22 20 18 17 16 15 14 14
11 9 9 9 8 8 9 9 7 6 4 3 3 3 4 5 4 2 2 1 2 3 4 4 4 4 4 4 4 5 5 4 5 5 4 5 5 3 2 2 1 2 2 3 5 6 6 6 4 2 3 6 12 13 8 6 2 2 6 7 4 2 3 4 6 9 13 15 16 17 17 16 18 21 23 24 27 28 27 24 21 18 17 16 14 13 12 10
Wind_Direction
294 293 293 293 293 293 294 294 293 291 287 282 276 271 266 262 259 254 249 246 240 235 233 231 232 232 232 228 222 218 216 216 215 207 197 201 205 204 203 202 203 202 202 206 200 189 184 177 168 160 154 142 128 110 97 98 104 113 122 121 130 154 160 162 163 162 166 167 164 165 166 165 163 160 161 162 165 170 166 163 171 174 170 174 173 163 160 158
298 295 293 292 291 291 292 292 292 291 288 285 279 273 267 262 259 255 251 248 243 238 234 231 231 231 232 229 224 220 214 214 211 202 203 205 203 204 204 203 204 204 202 202 198 189 182 174 166 158 153 142 129 112 100 95 95 100 115 130 137 148 155 158 163 164 165 169 168 167 168 168 167 164 165 168 171 176 173 167 171 173 169 175 174 166 163 159
305 301 297 295 292 291 290 290 291 291 289 287 285 280 272 263 255 252 250 247 244 240 236 233 231 230 231 229 226 221 213 212 204 199 205 201 198 201 200 200 203 204 201 195 190 185 179 174 169 162 156 146 131 115 104 95 89 89 97 117 140 151 157 160 166 169 167 172 175 168 168 170 168 170 173 175 176 176 175 167 165 170 175 177 174 168 165 159
314 310 306 301 298 294 291 289 288 288 288 287 286 284 280 273 260 250 247 245 242 239 236 233 231 229 229 229 226 221 214 208 200 201 204 198 199 199 196 199 199 201 200 190 184 184 179 173 168 165 161 149 132 115 104 94 88 85 85 91 125 159 165 166 167 170 168 175 183 174 171 171 168 175 179 179 178 170 167 163 161 170 178 176 173 169 165 160
319 316 313 309 305 302 298 294 290 287 286 285 284 283 282 279 272 258 248 245 240 236 235 231 230 228 227 227 224 221 214 206 201 202 202 200 202 196 193 198 196 197 200 192 186 185 180 172 167 165 162 147 127 113 104 96 90 83 83 90 114 158 167 172 170 169 168 169 177 180 177 172 171 180 182 181 180 165 156 160 165 178 182 176 170 167 162 158
319 316 315 312 309 306 304 300 296 291 287 285 284 282 280 279 277 268 252 246 240 234 232 228 227 226 225 224 221 218 209 203 201 199 199 201 201 196 193 196 197 195 197 195 191 188 181 173 168 165 158 141 126 116 109 103 94 84 84 97 115 145 160 176 177 171 168 165 171 180 179 174 176 181 181 179 177 163 154 162 172 180 182 177 170 165 158 154
318 315 312 310 309 307 306 304 301 297 292 287 284 281 279 276 275 269 255 246 242 235 229 226 224 223 223 220 218 215 204 200 197 194 196 198 198 197 195 198 199 195 195 195 196 193 184 175 168 161 150 138 129 122 116 109 101 95 93 105 122 140 153 172 178 171 166 165 172 179 177 177 179 179 178 175 172 166 163 168 176 177 179 178 171 165 157 151
316 312 310 309 306 305 304 303 302 299 297 293 288 283 279 274 270 266 254 243 240 235 230 225 221 220 220 217 214 209 201 198 191 190 193 194 194 195 197 201 199 196 194 193 198 199 188 176 165 156 146 139 134 128 120 108 102 112 118 120 123 130 150 166 169 169 167 166 173 177 176 179 179 178 178 175 171 170 170 174 175 174 177 176 169 166 159 154
313 311 311 311 307 305 304 302 300 298 295 294 291 287 282 276 268 263 255 244 237 232 228 225 221 217 216 214 211 205 200 196 190 189 191 191 191 193 197 200 200 198 194 191 195 199 193 179 165 156 150 145 140 132 120 102 95 119 149 140 125 133 154 166 162 164 169 166 172 180 180 180 179 178 180 179 174 173 176 176 171 171 174 172 168 167 163 159
313 313 315 314 310 308 306 303 301 298 295 292 290 288 286 281 271 263 257 248 238 229 223 222 220 216 212 211 208 204 201 197 191 192 191 189 189 191 194 196 197 197 195 191 190 195 191 178 170 166 160 155 150 138 121 103 96 116 171 149 136 148 150 155 160 163 172 170 173 185 185 180 179 180 183 183 177 177 181 175 170 172 174 171 169 169 166 164
316 317 317 315 311 308 306 304 301 298 297 294 291 287 285 285 278 268 259 250 242 229 218 218 218 213 209 207 206 203 202 199 194 194 191 188 189 191 192 194 193 192 193 187 182 189 184 179 179 174 169 166 161 145 126 123 132 138 198 160 142 148 142 138 158 167 171 174 177 185 185 181 183 185 188 187 181 183 185 176 171 173 175 174 172 172 170 168
320 318 316 313 309 306 304 302 299 297 296 294 291 287 283 282 281 275 264 253 244 232 218 214 213 210 207 204 203 201 203 202 195 195 193 188 189 191 191 190 188 186 185 177 176 182 182 183 181 176 178 173 163 146 134 151 157 167 212 175 150 143 149 141 154 169 169 176 180 177 183 190 190 190 193 193 186 184 184 178 172 173 177 177 175 176 174 173
322 318 314 312 308 306 304 302 299 297 295 292 289 286 281 276 276 277 270 256 245 234 220 214 210 208 204 199 199 200 201 203 198 195 193 190 191 192 190 189 185 181 177 171 173 177 182 186 179 179 183 172 160 145 151 169 175 198 199 178 159 145 155 149 151 167 165 176 185 178 186 197 192 191 196 196 188 182 181 178 174 174 178 179 178 179 179 178
322 317 315 313 310 310 309 307 303 300 298 293 287 282 277 271 269 270 268 261 248 236 223 215 212 206 199 195 198 199 200 201 200 196 192 191 191 191 191 188 186 182 175 171 172 175 184 189 183 185 184 171 165 153 161 173 185 207 181 178 185 156 160 161 155 164 166 178 187 187 194 198 192 193 197 195 188 183 180 178 177 176 179 180 180 182 184 180
323 319 319 318 317 316 315 312 309 306 302 297 291 280 270 264 261 261 264 266 257 240 224 216 213 205 196 194 196 197 196 196 197 198 197 195 191 190 190 189 187 182 177 174 175 178 188 193 188 189 187 176 170 163 169 174 188 197 170 178 200 173 168 168 159 167 174 181 185 190 203 202 193 193 196 195 189 185 182 180 179 179 181 182 181 184 186 180
329 328 327 325 322 319 316 313 309 305 301 297 294 284 266 256 253 255 263 273 271 248 224 214 210 202 194 194 193 188 184 188 193 199 203 202 196 190 188 190 187 182 179 178 177 182 191 194 192 192 192 183 175 172 173 176 191 190 174 181 195 194 182 170 165 174 179 184 180 182 200 205 198 195 197 197 192 188 184 183 181 180 183 184 184 187 187 182
337 334 332 328 323 319 317 312 307 302 299 295 293 290 271 250 246 253 266 278 279 252 223 213 205 197 193 192 187 178 176 182 188 195 203 206 201 192 188 188 186 183 181 176 176 184 192 195 194 195 194 187 183 179 175 186 198 192 185 183 190 205 202 176 174 182 182 182 179 179 192 201 202 201 200 198 195 193 188 186 183 180 183 184 186 189 188 187
341 337 333 328 323 321 318 313 308 304 299 293 289 286 263 243 242 253 267 274 275 250 219 212 199 189 190 187 177 172 176 178 183 190 194 200 199 192 188 186 185 183 179 175 178 186 193 196 195 196 196 192 191 186 184 195 201 194 190 189 195 211 218 199 188 190 185 180 185 193 198 200 203 206 205 199 196 195 193 191 185 181 182 184 186 189 191 190
342 337 333 329 325 326 325 321 318 312 301 289 281 271 247 240 239 247 259 262 268 239 216 209 192 182 184 184 173 170 174 175 177 183 184 189 191 189 187 182 183 185 181 179 182 188 195 198 197 197 197 196 195 191 192 205 208 202 198 198 205 214 222 216 204 201 191 183 189 202 207 206 207 210 207 200 196 194 195 196 190 184 184 186 188 190 192 191
341 337 334 331 331 336 338 337 335 326 305 283 270 258 242 233 228 236 249 262 264 221 209 203 190 184 181 180 175 169 169 171 173 174 175 180 182 184 184 178 180 186 184 183 186 191 197 201 203 201 196 197 201 197 186 186 191 194 202 206 215 224 229 222 208 200 193 189 191 201 210 216 214 210 205 199 197 196 196 197 193 187 185 188 192 193 191 188
340 336 336 335 340 349 353 354 354 333 302 289 269 247 232 230 230 239 242 268 267 206 198 192 184 182 177 178 180 173 169 171 171 170 171 174 177 180 179 175 179 184 185 187 189 194 200 206 206 202 198 202 212 206 183 169 172 174 188 203 216 225 228 224 215 204 191 194 196 199 212 219 214 205 198 197 198 198 198 197 195 190 188 190 196 197 187 180
341 336 337 342 349 358 5 9 4 342 316 302 286 272 249 251 261 234 201 280 288 172 169 167 164 166 170 179 187 181 175 173 173 172 171 173 175 178 178 177 181 185 187 191 194 199 206 210 207 203 205 209 217 213 195 190 187 177 177 183 198 212 213 204 208 209 194 193 197 197 204 211 212 202 194 198 201 202 202 200 198 195 194 195 199 202 190 180
342 338 340 348 356 4 14 19 17 5 346 326 308 296 270 269 286 114 93 73 85 136 146 144 141 148 168 186 196 193 185 177 176 175 172 173 174 177 180 180 183 187 192 196 199 203 209 212 210 207 212 215 219 218 207 207 211 206 195 183 182 195 197 181 181 196 194 192 197 197 193 196 207 205 197 199 203 204 205 202 200 199 199 201 204 207 197 187
345 340 343 353 5 10 16 20 23 11 354 348 334 311 274 298 64 82 77 85 104 134 140 135 134 145 169 183 187 189 187 181 180 178 175 174 175 179 183 183 186 191 197 203 205 208 210 212 214 212 216 220 222 222 216 216 219 219 209 197 186 187 199 199 186 187 188 192 200 193 186 189 201 209 203 201 204 206 207 205 202 201 199 199 205 209 203 196
345 343 348 360 12 16 17 14 11 358 350 2 11 2 64 72 80 77 79 93 112 133 135 132 141 154 165 163 152 154 169 177 180 181 181 178 177 184 186 188 194 199 205 209 211 215 213 210 213 215 218 222 225 225 221 219 221 224 214 198 196 192 195 208 197 183 182 194 199 182 179 196 204 210 209 205 206 207 208 208 205 202 199 197 199 202 202 201
347 347 358 9 18 25 17 357 344 342 348 22 52 74 81 87 89 83 89 96 118 135 137 139 149 156 158 150 146 148 153 172 180 183 185 181 181 188 188 192 201 206 214 217 218 223 220 215 213 214 218 220 222 221 218 218 219 224 219 200 205 218 209 208 201 189 189 195 193 183 183 202 205 209 212 208 208 209 210 210 207 203 201 200 198 196 197 201
351 354 14 29 35 41 37 29 33 43 57 64 73 77 75 89 90 89 92 85 121 142 142 144 143 142 152 152 156 159 151 168 178 181 181 181 183 189 191 199 208 209 212 218 221 227 226 219 217 222 222 217 217 214 208 210 214 219 219 205 204 216 226 232 216 206 206 197 180 187 190 201 210 212 213 210 209 210 211 212 208 204 204 203 199 196 197 201
358 10 43 59 61 64 64 67 68 68 70 66 65 63 61 79 77 77 81 69 144 161 165 156 139 130 153 165 169 167 143 163 176 182 179 185 196 197 199 203 208 203 200 213 220 226 232 226 222 226 228 223 218 211 201 204 211 213 215 212 204 207 251 258 225 212 211 195 179 189 193 203 228 214 211 210 211 211 212 213 210 205 206 206 201 199 201 206
12 38 72 80 80 80 78 76 71 66 64 57 57 57 56 67 57 53 60 71 150 167 186 175 164 151 168 183 181 172 159 157 173 193 187 194 203 204 208 201 199 200 202 220 225 226 230 226 223 225 230 230 220 212 203 201 205 210 215 217 211 219 248 233 216 207 199 194 196 197 196 204 247 208 204 206 211 212 210 211 211 207 207 208 204 202 205 211
30 68 91 93 90 89 82 74 66 59 56 52 59 64 63 68 56 52 62 47 99 122 148 182 191 191 188 194 186 178 171 154 146 189 190 202 205 202 210 207 207 211 217 234 238 238 229 222 228 227 227 228 221 216 208 200 202 206 215 221 216 225 217 201 200 196 182 199 220 208 198 201 242 216 205 203 207 211 208 208 211 209 208 208 204 204 208 212
53 88 103 101 96 91 79 69 62 56 55 55 71 76 72 70 59 57 76 40 46 51 63 183 190 191 190 190 186 182 181 181 206 193 188 202 206 202 206 208 213 219 232 244 246 254 245 234 234 228 220 218 214 214 208 201 201 198 208 218 196 162 177 179 181 182 176 223 229 215 201 200 223 229 213 210 209 210 209 210 211 208 209 208 204 204 209 213
88 105 111 105 98 91 77 70 65 61 65 72 83 86 79 69 53 43 43 32 29 27 51 156 173 183 174 178 186 190 189 203 219 193 186 194 196 196 200 207 216 222 238 247 251 264 260 246 234 222 216 212 208 210 207 204 203 195 197 202 173 134 154 168 164 181 208 222 217 211 202 204 228 231 225 221 217 215 214 216 216 212 210 209 206 206 210 214
124 119 117 109 101 91 79 75 70 67 74 81 86 86 80 72 46 31 33 32 28 30 75 123 131 159 162 161 177 185 181 190 190 182 185 186 187 193 202 213 219 225 239 249 264 279 272 248 229 220 218 212 209 211 209 207 207 200 191 184 170 147 143 170 179 1 247 223 202 198 198 211 244 236 234 231 223 222 222 222 221 217 215 214 210 209 211 215
139 130 122 115 107 93 81 76 71 73 80 85 97 95 78 67 41 33 37 37 37 37 85 123 126 149 157 151 162 171 166 167 172 178 181 181 190 204 220 232 228 228 238 252 269 277 272 243 222 219 221 217 213 213 209 209 213 209 200 192 189 184 168 166 182 172 200 207 187 182 193 218 242 237 237 233 227 226 223 226 223 216 215 217 214 211 211 214
149 138 126 120 113 96 84 79 77 86 93 93 106 94 70 54 35 38 36 36 43 49 87 128 137 144 151 151 161 172 174 164 164 176 181 180 194 206 215 232 233 231 235 244 259 257 257 253 219 215 222 220 215 214 212 211 215 216 209 206 207 207 204 191 184 193 193 171 172 185 192 216 226 238 242 235 231 225 218 223 224 214 212 214 216 214 214 216
153 144 133 129 122 104 91 89 89 93 99 109 119 81 65 49 41 45 36 36 48 65 112 138 144 143 151 163 169 170 174 170 165 174 178 174 168 159 156 185 223 236 236 235 240 247 260 254 205 209 223 223 218 217 215 214 215 211 204 206 210 214 217 202 170 190 196 177 185 193 201 222 228 243 245 237 235 223 212 214 218 212 208 209 214 216 218 221
149 145 140 135 126 112 100 98 97 93 95 109 101 80 67 52 49 53 46 43 53 86 134 136 126 120 140 159 173 171 163 156 161 172 172 165 146 113 100 88 83 267 241 232 234 248 269 262 216 209 224 221 220 222 216 215 218 210 203 205 203 201 211 203 157 150 174 165 214 198 208 223 223 235 240 235 233 223 210 207 210 209 205 205 210 214 219 224
146 144 140 132 122 115 109 106 102 96 98 101 90 80 69 57 54 55 56 54 61 84 111 112 102 103 135 150 167 178 175 163 158 169 168 158 135 98 86 65 50 24 275 224 222 239 273 275 244 229 232 218 216 222 216 209 215 219 212 205 194 177 186 186 163 159 168 133 260 208 214 225 223 228 237 234 229 224 208 202 205 206 204 204 207 211 217 222
142 138 135 129 118 113 114 111 105 101 109 107 90 78 68 61 56 52 58 63 68 78 89 94 95 100 121 140 140 149 174 177 166 170 167 154 135 101 81 63 51 33 18 208 213 234 271 282 260 241 237 217 209 213 209 199 201 210 210 202 196 187 179 180 178 179 176 163 178 201 217 228 225 228 234 233 228 223 209 202 203 204 203 204 206 209 214 218
136 133 133 128 117 114 121 120 110 99 103 102 89 79 72 64 56 57 61 63 71 79 85 94 105 104 108 125 131 131 141 155 161 163 157 152 146 108 73 50 40 39 44 96 201 237 261 270 270 267 243 214 201 200 199 193 191 194 197 197 195 191 180 177 182 179 174 167 150 157 209 224 219 222 226 226 225 220 211 205 204 204 204 206 208 211 214 217
138 138 138 130 120 118 122 121 113 96 96 97 87 79 75 63 57 60 62 69 78 83 86 97 117 116 111 118 125 130 131 136 150 151 139 138 132 89 59 26 13 30 37 45 154 246 254 260 270 281 244 179 182 191 192 192 194 195 198 200 198 195 185 171 159 181 184 180 169 170 195 213 212 216 218 217 221 220 213 208 207 206 205 207 209 211 214 217
154 153 149 138 130 124 118 119 118 103 100 102 83 69 72 66 59 59 75 101 94 88 91 97 111 121 121 116 121 135 133 129 142 143 124 112 97 67 49 357 342 359 4 3 358 309 293 297 290 279 188 137 154 173 176 182 191 195 198 200 199 202 200 192 187 182 181 183 185 185 200 216 212 215 214 213 218 218 211 208 209 209 207 208 209 210 213 217
164 159 154 142 132 126 118 128 130 110 108 117 93 70 64 57 60 63 83 115 108 97 99 96 99 113 118 113 129 145 136 123 126 127 112 101 94 61 18 329 318 336 349 346 343 326 306 317 325 295 166 138 139 149 154 161 174 187 194 195 195 202 207 209 211 197 183 182 182 177 188 222 213 214 213 212 214 213 208 206 207 209 211 211 211 214 217 220
161 154 152 144 136 131 125 136 141 128 128 139 130 95 48 33 62 81 64 80 98 98 92 90 94 104 106 111 159 162 149 134 125 121 112 102 97 59 347 314 304 312 329 332 326 325 324 330 336 344 142 135 129 133 143 148 154 168 179 186 193 196 199 206 206 195 188 191 191 187 182 203 208 211 212 211 211 209 205 205 206 207 211 214 216 220 222 223
168 161 153 146 152 151 138 134 141 145 148 154 154 140 27 20 51 57 30 38 79 94 88 87 92 101 106 115 154 163 166 160 144 135 123 109 104 92 10 323 303 303 320 329 317 328 28 42 43 73 125 144 142 98 61 114 146 158 169 178 188 190 193 200 191 184 189 193 196 201 195 192 201 206 207 208 209 206 204 205 206 206 210 215 219 224 227 226
179 182 176 171 167 154 143 135 141 153 157 164 166 157 109 39 35 21 9 23 58 88 94 96 102 109 117 134 162 155 153 152 149 145 139 130 122 113 65 336 290 281 287 290 284 337 74 81 82 83 91 97 94 68 34 25 134 166 174 180 190 194 194 197 189 191 201 196 196 205 207 204 204 205 207 208 209 208 205 204 206 207 210 214 216 220 221 219
189 198 196 187 168 148 140 130 135 152 160 176 177 157 148 113 25 349 292 1 51 84 112 134 152 141 105 119 207 180 135 133 143 148 150 152 138 117 126 246 254 245 218 203 212 178 110 99 97 92 88 83 70 67 44 336 329 196 186 179 189 198 197 196 195 202 206 198 200 205 208 215 218 212 210 209 210 211 208 206 207 208 212 215 213 212 214 216
197 195 187 181 168 161 161 154 157 157 144 182 175 155 156 164 1 335 302 315 331 314 280 205 198 200 126 107 193 191 152 142 147 154 158 165 174 178 196 255 279 271 235 210 197 182 147 114 113 108 99 95 79 78 140 208 350 276 219 191 193 202 206 210 216 222 221 218 223 219 216 223 226 218 215 212 212 212 208 207 208 210 215 217 213 212 217 222
203 197 187 182 173 169 177 183 190 215 235 210 179 162 173 197 231 286 311 306 297 295 291 238 185 208 211 342 328 237 198 177 155 153 157 162 179 196 204 260 308 320 305 312 1 191 178 145 138 135 124 129 111 77 129 145 63 327 259 223 201 202 210 218 222 226 231 239 250 243 230 225 222 221 219 213 210 211 209 207 208 210 213 213 211 214 217 217
202 202 196 191 183 174 179 187 190 204 222 225 214 211 235 262 273 292 302 287 278 289 303 209 147 182 232 283 313 305 236 211 187 168 158 140 152 190 194 94 357 328 298 294 354 349 189 176 175 176 175 192 207 271 29 142 78 29 300 252 216 194 202 213 216 220 227 235 245 252 242 227 219 216 216 212 210 209 209 208 208 209 211 212 213 217 221 222
199 203 201 199 197 188 185 187 198 226 237 224 234 253 281 299 298 301 302 272 246 241 232 218 196 208 245 281 301 321 295 227 207 196 189 181 178 198 211 102 44 354 346 7 16 18 14 351 204 214 215 206 213 235 285 275 121 67 6 283 242 203 203 206 209 215 222 230 237 240 239 230 218 208 206 209 211 210 209 208 209 210 211 214 217 223 233 239
207 206 203 206 203 193 191 192 200 224 236 224 243 271 298 316 332 0 352 301 236 248 245 234 239 249 255 270 283 295 298 268 233 220 210 201 196 198 203 207 259 308 346 355 355 3 7 12 13 290 245 217 209 211 235 282 298 38 6 0 3 332 243 221 222 216 217 227 235 236 237 234 221 207 200 202 206 208 206 204 207 211 213 216 222 233 247 257
Height
3125 3124 3124 3124 3124 3123 3123 3123 3123 3123 3123 3124 3124 3125 3125 3126 3126 3127 3127 3127 3128 3128 3128 3129 3129 3130 3130 3131 3132 3134 3135 3136 3137 3138 3139 3140 3140 3141 3143 3144 3145 3147 3148 3150 3151 3153 3154 3155 3156 3156 3157 3157 3157 3157 3156 3156 3156 3156 3157 3157 3158 3159 3159 3160 3161 3162 3164 3164 3165 3167 3168 3170 3170 3171 3173 3174 3175 3176 3177 3178 3180 3182 3183 3185 3187 3187 3188 3189
3124 3124 3123 3123 3123 3122 3122 3122 3121 3121 3121 3122 3122 3123 3123 3124 3125 3125 3126 3126 3126 3127 3127 3128 3128 3129 3129 3130 3131 3132 3134 3135 3136 3138 3138 3138 3140 3141 3142 3143 3145 3146 3148 3150 3151 3153 3154 3155 3156 3157 3157 3157 3157 3157 3157 3157 3157 3157 3158 3159 3159 3160 3160 3161 3162 3163 3165 3166 3167 3168 3169 3170 3171 3172 3173 3174 3175 3176 3177 3178 3180 3183 3184 3186 3187 3188 3189 3191
3123 3123 3122 3122 3122 3122 3121 3121 3120 3120 3120 3120 3120 3121 3121 3122 3123 3124 3124 3125 3125 3126 3126 3127 3127 3127 3128 3129 3130 3131 3132 3134 3135 3136 3137 3138 3139 3140 3141 3143 3144 3146 3148 3149 3151 3153 3154 3155 3156 3157 3157 3157 3158 3158 3158 3158 3158 3158 3159 3159 3160 3160 3161 3161 3162 3164 3165 3167 3168 3168 3170 3171 3172 3173 3174 3175 3175 3176 3178 3179 3180 3183 3184 3186 3188 3189 3190 3192
3122 3122 3121 3121 3121 3120 3120 3120 3120 3119 3119 3119 3119 3119 3119 3120 3121 3122 3122 3123 3123 3124 3125 3125 3126 3126 3127 3128 3129 3130 3131 3132 3134 3135 3136 3137 3138 3139 3141 3142 3143 3145 3146 3148 3149 3151 3152 3153 3155 3156 3157 3157 3158 3158 3158 3158 3159 3159 3159 3159 3160 3161 3162 3162 3163 3164 3165 3167 3168 3169 3170 3171 3172 3174 3175 3176 3176 3177 3179 3181 3183 3184 3185 3187 3189 3190 3191 3193
3121 3121 3120 3120 3119 3119 3119 3119 3118 3118 3118 3117 3117 3118 3118 3118 3119 3120 3121 3121 3121 3122 3123 3124 3125 3125 3126 3126 3127 3129 3130 3131 3132 3133 3135 3136 3137 3138 3140 3141 3142 3143 3145 3147 3148 3149 3151 3153 3154 3155 3157 3158 3158 3158 3159 3159 3160 3160 3160 3160 3160 3161 3162 3162 3163 3164 3165 3166 3168 3170 3171 3172 3173 3174 3175 3177 3178 3179 3181 3183 3185 3186 3187 3189 3190 3191 3192 3194
3121 3120 3120 3119 3118 3118 3118 3118 3117 3117 3117 3116 3116 3116 3117 3117 3117 3118 3119 3119 3119 3120 3121 3122 3123 3124 3124 3125 3126 3127 3129 3130 3131 3132 3133 3135 3136 3138 3139 3140 3141 3142 3144 3146 3147 3148 3150 3152 3154 3155 3157 3158 3158 3159 3159 3160 3160 3160 3160 3160 3160 3161 3162 3163 3164 3164 3165 3167 3168 3170 3171 3172 3173 3174 3176 3178 3180 3182 3183 3184 3186 3187 3189 3191 3192 3193 3194 3195
3120 3120 3119 3118 3118 3117 3117 3116 3116 3116 3116 3115 3115 3115 3115 3115 3116 3116 3117 3118 3118 3119 3119 3120 3121 3122 3123 3124 3125 3126 3128 3129 3130 3131 3132 3133 3135 3137 3138 3139 3140 3142 3143 3145 3147 3148 3150 3152 3154 3156 3157 3158 3158 3159 3159 3160 3161 3161 3161 3161 3161 3161 3162 3163 3164 3165 3166 3167 3168 3169 3171 3172 3173 3175 3177 3179 3181 3183 3184 3185 3186 3188 3190 3192 3194 3195 3196 3197
3120 3119 3118 3118 3117 3116 3116 3115 3115 3115 3114 3114 3114 3114 3114 3114 3114 3114 3115 3116 3116 3117 3118 3119 3119 3120 3121 3123 3124 3125 3126 3127 3128 3129 3131 3132 3134 3136 3138 3138 3140 3142 3143 3145 3147 3149 3151 3152 3154 3156 3157 3158 3158 3159 3159 3160 3161 3162 3161 3161 3162 3162 3163 3163 3164 3166 3167 3168 3169 3170 3171 3173 3174 3176 3178 3179 3181 3183 3184 3185 3187 3189 3190 3193 3195 3196 3197 3198
3119 3118 3118 3117 3116 3116 3115 3114 3114 3114 3113 3113 3113 3113 3113 3112 3112 3113 3113 3114 3115 3116 3117 3117 3118 3119 3120 3121 3123 3124 3125 3126 3127 3128 3129 3131 3133 3135 3137 3138 3140 3141 3143 3144 3146 3148 3151 3153 3155 3156 3157 3157 3158 3159 3160 3160 3161 3162 3162 3162 3163 3163 3163 3163 3164 3166 3168 3168 3170 3171 3172 3173 3175 3177 3179 3180 3182 3183 3185 3186 3187 3189 3191 3193 3196 3197 3198 3199
3118 3118 3117 3117 3116 3115 3114 3113 3113 3112 3112 3112 3112 3112 3111 3111 3111 3111 3111 3112 3113 3114 3115 3116 3116 3117 3118 3120 3121 3122 3124 3125 3126 3127 3128 3130 3132 3134 3136 3137 3139 3141 3143 3144 3146 3148 3151 3154 3155 3156 3156 3157 3157 3158 3159 3160 3161 3162 3162 3163 3164 3164 3164 3164 3166 3167 3168 3169 3170 3172 3173 3174 3176 3177 3179 3180 3182 3183 3185 3186 3188 3190 3192 3194 3196 3198 3199 3200
3118 3117 3117 3116 3115 3114 3113 3112 3111 3111 3111 3111 3111 3111 3111 3110 3110 3110 3110 3111 3111 3112 3113 3114 3115 3115 3116 3118 3120 3121 3122 3123 3125 3126 3127 3129 3131 3133 3135 3137 3139 3140 3142 3144 3146 3149 3151 3153 3154 3155 3156 3156 3157 3158 3159 3160 3162 3162 3162 3163 3164 3164 3165 3166 3167 3168 3169 3170 3171 3172 3174 3175 3176 3178 3179 3180 3182 3184 3185 3187 3188 3190 3193 3195 3196 3198 3199 3201
3117 3116 3116 3115 3114 3113 3112 3111 3110 3109 3109 3110 3110 3110 3109 3109 3109 3109 3109 3109 3110 3110 3111 3112 3113 3114 3115 3116 3118 3120 3121 3122 3124 3125 3126 3128 3130 3131 3133 3135 3138 3140 3142 3144 3146 3149 3150 3151 3153 3154 3155 3156 3157 3159 3159 3160 3161 3162 3163 3164 3164 3165 3166 3167 3168 3169 3170 3171 3172 3173 3174 3175 3177 3178 3179 3181 3183 3184 3186 3187 3189 3191 3193 3195 3196 3198 3200 3201
3117 3116 3114 3113 3112 3111 3110 3110 3109 3108 3108 3108 3108 3108 3108 3108 3108 3108 3108 3108 3108 3109 3110 3110 3111 3112 3113 3115 3117 3118 3120 3121 3123 3124 3126 3127 3129 3130 3132 3134 3136 3138 3140 3143 3145 3148 3149 3150 3152 3153 3154 3156 3157 3158 3159 3160 3161 3162 3163 3164 3164 3165 3167 3168 3170 3170 3171 3171 3172 3173 3173 3174 3176 3178 3179 3181 3183 3184 3185 3187 3189 3191 3193 3195 3197 3198 3200 3201
3116 3114 3113 3112 3111 3110 3109 3108 3107 3107 3106 3106 3106 3106 3106 3107 3107 3107 3107 3107 3107 3108 3108 3109 3110 3111 3112 3113 3115 3117 3119 3121 3122 3124 3125 3127 3128 3129 3131 3133 3135 3137 3139 3140 3143 3146 3148 3149 3150 3152 3153 3155 3156 3158 3159 3160 3160 3161 3162 3164 3165 3165 3167 3168 3170 3170 3171 3171 3172 3173 3173 3174 3176 3177 3179 3181 3183 3184 3185 3187 3189 3191 3193 3195 3197 3198 3200 3201
3114 3113 3112 3111 3110 3109 3108 3107 3106 3106 3105 3104 3104 3104 3105 3105 3105 3105 3106 3106 3107 3107 3107 3108 3109 3110 3111 3112 3114 3116 3118 3120 3122 3123 3124 3126 3127 3129 3130 3133 3135 3136 3138 3139 3141 3143 3145 3147 3149 3151 3153 3154 3156 3158 3159 3159 3160 3161 3162 3164 3164 3165 3166 3167 3168 3170 3170 3171 3172 3173 3173 3174 3176 3177 3179 3181 3183 3184 3186 3187 3189 3191 3193 3195 3197 3198 3200 3202
3114 3112 3111 3110 3109 3108 3107 3106 3105 3105 3104 3103 3103 3103 3103 3103 3104 3104 3105 3106 3106 3107 3107 3107 3108 3109 3110 3111 3113 3115 3117 3119 3120 3122 3123 3124 3126 3128 3129 3132 3134 3136 3137 3138 3140 3142 3143 3146 3149 3150 3152 3153 3155 3157 3158 3159 3159 3161 3163 3164 3164 3163 3164 3166 3167 3169 3170 3171 3172 3173 3173 3174 3176 3178 3179 3181 3183 3185 3186 3187 3189 3191 3193 3195 3197 3198 3200 3202
3113 3112 3111 3110 3108 3107 3106 3105 3104 3103 3102 3102 3101 3102 3102 3102 3102 3103 3105 3106 3106 3106 3106 3107 3107 3108 3109 3110 3112 3114 3116 3117 3119 3120 3121 3123 3124 3127 3129 3130 3133 3135 3136 3137 3139 3141 3143 3145 3147 3149 3151 3153 3155 3156 3158 3158 3158 3159 3162 3163 3163 3163 3163 3165 3167 3168 3169 3170 3172 3172 3173 3174 3176 3177 3179 3181 3183 3185 3186 3188 3189 3191 3193 3195 3197 3198 3200 3202
3113 3112 3110 3109 3108 3107 3106 3104 3103 3102 3101 3100 3100 3101 3101 3101 3102 3103 3104 3105 3105 3105 3106 3106 3107 3108 3109 3110 3112 3114 3115 3117 3118 3119 3120 3122 3123 3126 3127 3130 3133 3135 3135 3137 3138 3140 3142 3144 3146 3148 3150 3152 3153 3155 3156 3156 3157 3158 3161 3163 3163 3163 3163 3165 3166 3167 3168 3170 3172 3173 3173 3175 3176 3177 3178 3180 3182 3184 3186 3188 3190 3191 3193 3195 3197 3198 3200 3202
3112 3111 3110 3109 3107 3106 3105 3103 3102 3101 3100 3099 3099 3100 3100 3101 3102 3103 3103 3104 3104 3105 3105 3105 3106 3107 3108 3109 3111 3113 3114 3116 3117 3118 3120 3121 3123 3124 3126 3128 3131 3134 3134 3136 3138 3140 3141 3143 3145 3146 3148 3150 3152 3154 3156 3157 3158 3159 3161 3163 3163 3163 3163 3165 3167 3167 3168 3170 3171 3173 3174 3175 3175 3176 3177 3179 3182 3184 3186 3188 3190 3192 3193 3195 3197 3198 3200 3202
3112 3111 3109 3108 3107 3106 3104 3103 3102 3101 3100 3099 3099 3100 3100 3101 3101 3102 3102 3103 3103 3103 3104 3105 3106 3107 3108 3109 3111 3113 3114 3116 3117 3118 3119 3120 3122 3124 3125 3127 3130 3133 3134 3135 3137 3139 3140 3142 3143 3145 3148 3151 3153 3155 3157 3158 3159 3160 3161 3163 3163 3163 3163 3164 3167 3168 3169 3170 3171 3172 3173 3174 3175 3176 3178 3180 3182 3183 3185 3187 3189 3191 3193 3195 3197 3199 3200 3202
3112 3110 3109 3108 3107 3106 3104 3103 3102 3101 3100 3100 3100 3100 3100 3101 3101 3102 3102 3102 3102 3102 3103 3104 3106 3107 3108 3109 3111 3113 3114 3115 3117 3118 3119 3120 3122 3123 3125 3126 3128 3131 3133 3135 3137 3139 3140 3140 3142 3146 3150 3152 3152 3155 3157 3158 3158 3159 3161 3162 3163 3163 3164 3165 3166 3168 3169 3170 3171 3172 3173 3174 3175 3176 3178 3179 3181 3183 3184 3186 3188 3191 3193 3195 3197 3198 3201 3202
3111 3110 3109 3107 3106 3105 3104 3103 3102 3102 3101 3101 3100 3100 3101 3101 3102 3102 3102 3102 3102 3102 3103 3104 3106 3108 3109 3110 3111 3113 3114 3115 3117 3118 3118 3120 3121 3123 3125 3126 3128 3130 3132 3135 3136 3138 3139 3139 3143 3147 3149 3150 3151 3154 3156 3157 3158 3159 3160 3161 3161 3162 3163 3165 3166 3168 3169 3170 3171 3172 3173 3174 3174 3176 3178 3180 3182 3183 3184 3186 3188 3190 3192 3194 3196 3198 3200 3202
3111 3110 3108 3107 3106 3105 3104 3104 3103 3102 3102 3101 3101 3101 3101 3102 3102 3102 3102 3102 3102 3102 3104 3105 3107 3108 3110 3111 3112 3113 3115 3116 3117 3118 3119 3120 3121 3123 3125 3126 3128 3130 3132 3134 3135 3137 3138 3140 3143 3146 3147 3149 3151 3153 3155 3156 3157 3159 3160 3160 3161 3161 3162 3164 3166 3167 3168 3170 3171 3172 3173 3174 3175 3177 3178 3180 3181 3183 3184 3185 3187 3189 3191 3193 3196 3197 3199 3201
3111 3109 3108 3107 3106 3105 3104 3104 3103 3103 3102 3102 3101 3101 3101 3102 3102 3102 3102 3102 3103 3104 3105 3107 3108 3109 3110 3111 3112 3114 3115 3116 3117 3118 3119 3120 3122 3123 3125 3127 3129 3130 3132 3133 3135 3136 3137 3140 3142 3144 3146 3148 3149 3152 3154 3155 3156 3158 3159 3160 3161 3161 3162 3163 3164 3166 3168 3170 3171 3172 3174 3175 3176 3177 3178 3179 3181 3182 3184 3185 3187 3188 3190 3193 3195 3197 3198 3200
3111 3109 3108 3107 3106 3105 3104 3104 3104 3103 3103 3102 3102 3102 3102 3102 3102 3102 3103 3103 3104 3105 3107 3108 3109 3110 3111 3112 3113 3115 3116 3117 3118 3119 3120 3121 3122 3124 3126 3127 3129 3131 3132 3133 3134 3135 3136 3139 3141 3143 3145 3146 3148 3150 3152 3154 3156 3157 3158 3160 3161 3162 3162 3163 3164 3166 3167 3169 3170 3172 3174 3175 3175 3175 3176 3178 3179 3181 3183 3185 3186 3188 3190 3191 3193 3195 3197 3199
3111 3109 3108 3107 3106 3105 3104 3104 3104 3103 3103 3103 3103 3103 3103 3103 3103 3103 3103 3104 3105 3107 3108 3109 3110 3111 3112 3113 3114 3115 3117 3118 3118 3120 3121 3122 3123 3124 3126 3127 3129 3131 3132 3133 3134 3134 3135 3138 3141 3142 3143 3145 3146 3148 3150 3153 3155 3156 3158 3160 3161 3161 3162 3163 3164 3165 3166 3168 3170 3171 3172 3173 3173 3174 3174 3176 3178 3180 3182 3183 3185 3187 3188 3190 3192 3194 3196 3198
3111 3110 3108 3107 3106 3105 3105 3105 3104 3104 3104 3104 3104 3104 3104 3104 3104 3104 3105 3105 3107 3108 3109 3110 3110 3111 3112 3114 3115 3116 3117 3118 3119 3120 3122 3123 3124 3125 3127 3128 3129 3130 3131 3132 3133 3133 3134 3137 3140 3141 3142 3143 3144 3146 3149 3151 3153 3155 3157 3159 3160 3161 3162 3162 3163 3164 3165 3167 3170 3171 3171 3171 3171 3172 3173 3174 3177 3178 3179 3180 3183 3185 3187 3189 3191 3193 3195 3197
3111 3110 3109 3108 3107 3106 3106 3106 3106 3106 3106 3106 3106 3105 3105 3105 3105 3105 3105 3107 3108 3109 3110 3111 3111 3112 3113 3114 3115 3117 3118 3118 3120 3121 3122 3123 3124 3125 3127 3128 3129 3130 3131 3131 3132 3133 3134 3137 3139 3140 3141 3141 3142 3145 3148 3149 3152 3155 3157 3158 3160 3160 3161 3161 3162 3163 3165 3167 3169 3169 3170 3170 3170 3170 3171 3174 3175 3175 3175 3177 3181 3183 3185 3188 3190 3191 3194 3196
3111 3110 3109 3108 3108 3108 3108 3108 3108 3107 3107 3107 3107 3106 3106 3106 3106 3106 3106 3108 3110 3110 3110 3111 3112 3113 3114 3115 3116 3117 3118 3119 3120 3121 3122 3123 3124 3125 3127 3128 3129 3130 3131 3131 3131 3133 3134 3136 3137 3138 3139 3140 3142 3144 3146 3148 3151 3154 3156 3157 3159 3159 3160 3161 3162 3163 3165 3167 3166 3166 3168 3169 3168 3168 3169 3172 3172 3171 3172 3175 3179 3182 3184 3187 3189 3191 3193 3195
3112 3111 3110 3109 3109 3109 3109 3109 3109 3109 3108 3108 3108 3107 3107 3107 3107 3106 3107 3110 3111 3111 3111 3112 3112 3113 3114 3115 3116 3117 3118 3119 3120 3121 3122 3123 3124 3125 3127 3127 3129 3130 3130 3130 3131 3132 3133 3134 3135 3135 3137 3139 3141 3144 3145 3146 3150 3152 3154 3155 3157 3158 3159 3161 3162 3163 3166 3167 3164 3165 3167 3168 3168 3166 3166 3168 3167 3167 3170 3174 3177 3180 3183 3186 3188 3190 3192 3194
3112 3111 3111 3110 3110 3110 3110 3110 3110 3110 3109 3109 3109 3108 3108 3107 3107 3107 3110 3112 3111 3111 3112 3112 3113 3113 3113 3114 3116 3117 3118 3119 3120 3121 3122 3123 3124 3125 3126 3127 3128 3129 3130 3130 3130 3131 3131 3132 3133 3134 3136 3138 3140 3142 3143 3146 3148 3150 3151 3152 3155 3158 3159 3162 3163 3164 3166 3165 3163 3164 3167 3168 3167 3165 3164 3165 3166 3167 3170 3172 3174 3177 3181 3184 3187 3189 3191 3194
3112 3112 3111 3111 3111 3111 3111 3112 3111 3111 3111 3110 3110 3109 3109 3108 3108 3109 3111 3112 3111 3111 3111 3112 3112 3113 3113 3114 3116 3117 3118 3119 3120 3121 3122 3123 3124 3125 3126 3127 3128 3128 3129 3129 3129 3130 3130 3130 3131 3133 3135 3136 3138 3140 3142 3143 3145 3147 3149 3150 3153 3157 3160 3163 3165 3164 3164 3163 3163 3164 3166 3167 3165 3164 3164 3166 3167 3168 3170 3172 3174 3177 3180 3183 3186 3188 3190 3192
3113 3112 3112 3112 3112 3113 3113 3113 3112 3112 3112 3111 3111 3110 3109 3109 3111 3112 3112 3112 3112 3111 3111 3112 3112 3113 3114 3115 3116 3117 3118 3119 3120 3120 3122 3123 3124 3125 3126 3126 3127 3127 3127 3128 3128 3128 3128 3129 3130 3132 3133 3134 3136 3137 3138 3140 3142 3144 3146 3147 3150 3154 3159 3163 3165 3165 3163 3162 3162 3164 3166 3166 3164 3163 3164 3165 3166 3168 3170 3172 3174 3176 3179 3182 3185 3187 3189 3191
3113 3113 3113 3113 3113 3114 3114 3114 3113 3113 3113 3112 3112 3111 3109 3111 3114 3114 3113 3112 3112 3111 3111 3112 3113 3113 3114 3115 3116 3117 3118 3119 3119 3120 3121 3123 3124 3125 3125 3126 3126 3126 3127 3127 3128 3128 3128 3128 3129 3130 3132 3132 3134 3135 3137 3139 3141 3143 3145 3146 3148 3149 3153 3158 3161 3162 3161 3161 3162 3164 3165 3164 3162 3162 3163 3164 3166 3167 3169 3171 3172 3175 3178 3181 3183 3186 3188 3190
3113 3113 3114 3114 3114 3115 3115 3114 3114 3114 3114 3113 3113 3111 3111 3114 3115 3114 3113 3113 3112 3112 3112 3112 3113 3114 3115 3115 3116 3117 3118 3119 3119 3120 3122 3123 3124 3124 3125 3125 3125 3126 3126 3127 3127 3127 3127 3127 3127 3129 3130 3131 3133 3135 3137 3139 3140 3142 3144 3145 3146 3147 3148 3152 3155 3156 3157 3158 3160 3161 3161 3160 3160 3161 3162 3163 3164 3166 3168 3170 3171 3173 3175 3179 3182 3185 3187 3188
3113 3114 3114 3115 3115 3115 3115 3115 3115 3115 3115 3114 3113 3113 3114 3116 3116 3115 3115 3114 3113 3113 3112 3113 3114 3115 3115 3116 3116 3117 3118 3119 3120 3121 3122 3123 3124 3124 3125 3125 3125 3125 3125 3126 3127 3127 3127 3126 3127 3128 3129 3130 3132 3134 3135 3137 3138 3139 3141 3142 3144 3147 3148 3149 3152 3154 3155 3157 3157 3157 3157 3158 3159 3160 3160 3162 3163 3164 3166 3168 3169 3171 3174 3177 3180 3183 3186 3187
3114 3114 3115 3115 3116 3116 3116 3116 3116 3116 3116 3115 3114 3115 3116 3117 3117 3116 3116 3115 3114 3113 3113 3113 3114 3115 3116 3116 3117 3118 3118 3119 3120 3121 3122 3124 3124 3125 3125 3124 3124 3124 3124 3125 3126 3127 3126 3126 3126 3127 3128 3129 3131 3132 3134 3135 3136 3137 3138 3140 3143 3146 3147 3147 3150 3154 3156 3156 3155 3155 3155 3156 3158 3158 3158 3160 3161 3162 3164 3166 3168 3170 3172 3175 3178 3181 3184 3185
3114 3114 3115 3115 3116 3116 3116 3117 3117 3116 3116 3115 3115 3117 3117 3117 3117 3117 3116 3116 3115 3115 3114 3114 3114 3116 3116 3116 3117 3118 3118 3119 3120 3121 3122 3124 3125 3125 3125 3125 3124 3124 3124 3124 3125 3126 3126 3125 3125 3126 3126 3128 3129 3131 3132 3133 3135 3136 3137 3139 3141 3143 3144 3145 3147 3151 3154 3156 3155 3154 3155 3155 3155 3156 3157 3158 3160 3160 3162 3164 3166 3169 3171 3174 3176 3179 3181 3183
3114 3115 3116 3116 3116 3116 3117 3117 3117 3117 3117 3116 3116 3117 3118 3118 3118 3118 3117 3117 3116 3115 3115 3115 3115 3116 3116 3117 3117 3118 3118 3119 3120 3121 3122 3123 3125 3125 3125 3125 3125 3124 3124 3124 3125 3126 3126 3126 3125 3125 3126 3127 3128 3129 3130 3131 3133 3135 3136 3137 3138 3140 3142 3143 3144 3145 3148 3152 3154 3154 3155 3153 3152 3154 3156 3157 3158 3159 3160 3162 3165 3167 3170 3172 3174 3176 3179 3181
3115 3115 3116 3116 3117 3117 3117 3117 3117 3117 3117 3117 3117 3118 3118 3118 3119 3118 3118 3117 3116 3116 3116 3116 3116 3117 3117 3118 3118 3118 3118 3119 3120 3121 3122 3123 3124 3125 3125 3124 3125 3125 3124 3125 3125 3125 3126 3126 3125 3125 3125 3126 3127 3128 3129 3131 3132 3133 3134 3135 3136 3138 3140 3141 3143 3142 3143 3147 3150 3152 3153 3150 3149 3152 3154 3156 3157 3158 3159 3161 3164 3166 3168 3171 3173 3175 3177 3179
3115 3116 3117 3117 3117 3117 3117 3117 3117 3117 3117 3118 3118 3118 3118 3119 3119 3119 3118 3118 3118 3117 3117 3117 3117 3118 3118 3118 3118 3119 3119 3120 3121 3122 3122 3123 3124 3124 3124 3124 3124 3125 3125 3125 3125 3125 3126 3125 3125 3124 3125 3125 3126 3127 3128 3130 3131 3132 3133 3134 3135 3136 3138 3139 3141 3142 3142 3143 3145 3147 3147 3146 3147 3149 3151 3154 3156 3157 3158 3160 3163 3165 3167 3169 3171 3173 3175 3177
3116 3116 3117 3117 3117 3117 3117 3117 3118 3118 3118 3118 3118 3118 3119 3119 3119 3119 3119 3119 3119 3118 3118 3118 3118 3119 3119 3119 3119 3119 3119 3120 3121 3122 3123 3123 3124 3124 3124 3124 3124 3124 3124 3125 3125 3125 3125 3125 3125 3124 3125 3125 3125 3126 3128 3129 3130 3132 3132 3133 3134 3135 3136 3137 3138 3140 3141 3142 3143 3144 3145 3145 3146 3148 3149 3152 3154 3156 3158 3159 3162 3164 3166 3168 3170 3173 3175 3177
3116 3117 3117 3117 3117 3117 3117 3118 3118 3118 3118 3119 3119 3119 3119 3119 3120 3120 3120 3120 3119 3119 3119 3119 3119 3119 3120 3120 3120 3120 3120 3121 3122 3122 3123 3123 3123 3124 3124 3124 3124 3125 3125 3125 3124 3125 3125 3125 3125 3124 3125 3125 3125 3126 3127 3128 3129 3130 3131 3132 3133 3134 3134 3135 3136 3138 3139 3140 3141 3143 3145 3145 3145 3146 3148 3151 3153 3155 3157 3159 3161 3164 3166 3168 3170 3172 3174 3177
3116 3117 3117 3118 3118 3117 3117 3118 3118 3118 3119 3119 3119 3119 3120 3119 3120 3120 3120 3120 3120 3120 3120 3120 3120 3120 3120 3121 3121 3120 3120 3121 3122 3122 3123 3123 3123 3124 3124 3124 3124 3125 3125 3125 3125 3125 3124 3124 3125 3125 3125 3125 3125 3126 3126 3127 3128 3129 3130 3131 3132 3133 3134 3135 3136 3137 3138 3138 3139 3141 3143 3143 3144 3145 3147 3149 3151 3153 3156 3158 3161 3163 3165 3167 3169 3171 3173 3175
3116 3117 3118 3118 3118 3118 3118 3118 3118 3118 3119 3119 3119 3120 3120 3120 3120 3120 3120 3120 3120 3121 3120 3121 3121 3121 3121 3121 3121 3121 3121 3121 3122 3122 3122 3123 3123 3123 3124 3124 3124 3124 3125 3125 3125 3125 3125 3125 3124 3124 3125 3126 3127 3127 3127 3127 3128 3128 3129 3130 3131 3132 3133 3134 3135 3136 3136 3137 3138 3139 3140 3141 3143 3144 3145 3147 3149 3151 3154 3157 3160 3162 3164 3166 3168 3170 3171 3173
3117 3117 3118 3118 3118 3118 3118 3118 3118 3119 3119 3119 3119 3120 3120 3120 3120 3120 3120 3120 3121 3121 3121 3121 3121 3121 3121 3122 3122 3122 3121 3121 3122 3122 3122 3123 3123 3123 3123 3123 3124 3124 3125 3125 3125 3125 3125 3125 3125 3125 3125 3127 3127 3127 3127 3127 3128 3128 3129 3130 3130 3131 3132 3133 3134 3135 3135 3137 3138 3138 3139 3140 3141 3142 3143 3145 3147 3150 3153 3156 3158 3160 3162 3164 3166 3168 3170 3172
3117 3117 3117 3118 3118 3118 3118 3119 3119 3119 3119 3119 3119 3120 3120 3120 3120 3120 3120 3120 3121 3121 3121 3122 3122 3122 3122 3122 3122 3122 3122 3122 3122 3122 3122 3123 3123 3123 3123 3123 3123 3124 3124 3125 3125 3126 3126 3126 3126 3126 3126 3127 3128 3127 3127 3127 3128 3128 3128 3129 3130 3131 3132 3132 3133 3134 3135 3136 3137 3138 3139 3139 3140 3141 3142 3143 3145 3148 3151 3154 3156 3158 3160 3163 3165 3167 3169 3170
3116 3117 3117 3118 3118 3118 3118 3119 3119 3119 3119 3119 3119 3120 3120 3120 3120 3120 3120 3120 3121 3121 3121 3121 3122 3122 3122 3122 3122 3122 3122 3122 3122 3123 3123 3123 3123 3123 3123 3123 3123 3123 3124 3124 3125 3125 3126 3126 3127 3127 3127 3127 3128 3127 3127 3128 3129 3128 3128 3128 3129 3130 3131 3132 3132 3133 3134 3135 3136 3137 3138 3139 3139 3140 3141 3142 3144 3146 3149 3152 3154 3157 3159 3162 3164 3166 3168 3170
3116 3117 3117 3118 3118 3118 3118 3119 3119 3119 3119 3119 3119 3120 3120 3121 3121 3121 3120 3120 3120 3120 3121 3121 3122 3122 3122 3122 3122 3122 3123 3123 3123 3123 3123 3123 3123 3123 3123 3123 3123 3124 3124 3124 3124 3125 3126 3126 3127 3127 3127 3127 3128 3128 3128 3129 3129 3128 3128 3128 3128 3128 3130 3131 3131 3132 3133 3134 3135 3136 3137 3138 3139 3140 3140 3142 3144 3146 3148 3151 3153 3156 3158 3161 3163 3165 3167 3169
3116 3116 3117 3117 3118 3118 3118 3119 3119 3119 3119 3119 3119 3120 3120 3121 3121 3120 3120 3120 3120 3120 3120 3121 3121 3121 3122 3122 3122 3122 3122 3123 3123 3123 3123 3123 3123 3124 3124 3124 3124 3124 3124 3124 3124 3125 3125 3126 3126 3126 3126 3126 3127 3128 3128 3128 3128 3128 3128 3127 3127 3127 3128 3129 3130 3131 3132 3133 3134 3135 3136 3136 3138 3139 3140 3142 3143 3145 3147 3150 3152 3155 3157 3160 3162 3164 3166 3168
3115 3116 3116 3117 3117 3118 3118 3118 3119 3119 3119 3119 3119 3119 3120 3120 3120 3120 3120 3120 3120 3120 3120 3120 3120 3121 3121 3121 3122 3122 3122 3123 3123 3123 3123 3123 3124 3124 3124 3124 3125 3125 3124 3124 3125 3125 3125 3126 3126 3126 3126 3126 3127 3128 3129 3129 3128 3128 3127 3127 3127 3127 3127 3128 3128 3129 3130 3131 3132 3133 3134 3135 3136 3137 3139 3141 3143 3145 3147 3149 3151 3153 3156 3158 3160 3162 3163 3165
3115 3115 3116 3116 3117 3117 3118 3118 3119 3119 3119 3119 3119 3119 3119 3120 3120 3120 3120 3119 3119 3119 3119 3119 3120 3120 3121 3121 3121 3122 3122 3122 3122 3123 3123 3123 3124 3124 3124 3125 3125 3125 3125 3125 3125 3125 3126 3126 3126 3126 3126 3126 3127 3128 3129 3129 3129 3128 3128 3127 3127 3127 3127 3128 3127 3128 3128 3129 3131 3132 3133 3134 3135 3135 3136 3138 3140 3143 3146 3149 3151 3153 3155 3156 3158 3160 3161 3162